Location: Newark
(47.5989°N, 4.6950°E)
Time: 02:01:42
(UTC+00:00)

ISS - Pass Details

Date: 28 November 2019
Orbit: 411 x 421 km, 51.6° (Epoch: 07 December)

Event Time Altitude Azimuth Distance (km) Brightness Sun altitude
Rises 19:00:37 0° 283° (WNW) 2,362 1.2 -30.9°
Reaches altitude 10° 19:02:48 10° 291° (WNW) 1,500 -0.2 -31.2°
Enters shadow 19:02:59 11° 292° (WNW) 1,427 -0.3 -31.3°
